Flag for Switzerland Weather past 2 weeks in Worb, Bern, Switzerland

Now
39 °F

Light rain. Partly sunny.


Feels Like: 31 °F
Forecast: 23 / 33 °F
Wind: 14 mph from West

Location: Bern / Belp

Current Time: Dec 27, 2014 at 12:41:03 PM

Latest Report: Dec 27, 2014 at 12:20 PM


Visibility: 3 mi

Pressure: 29.59 "Hg

Humidity: 81%

Dew point: 34 °F

Location of WorbLocation

Historic Weather in Worb — Graph

°F

Worb temperature yesterday

Maximum temperature yesterday: 41 °F (at 2:20 PM)
Minimum temperature yesterday: 25 °F (at 11:50 PM)
Average temperature yesterday: 32 °F

Past Weeks' High & Low Weather Summary

 TemperatureHumidityPressure
High54 °F (Dec 19, 2:20 PM)100% (Dec 12, 11:50 PM)30.54 "Hg (Dec 12, 11:50 PM)
Low23 °F (Dec 23, 7:50 AM)47% (Dec 23, 2:20 PM)29.62 "Hg (Dec 27, 10:20 AM)
Average38 °F89%30.18 "Hg
* Reported Dec 12 11:20 AM — Dec 27 11:20 AM, Worb, Weather by CustomWeather, © 2014

Note: Actual official high and low records may vary slightly from our data, if they occured in-between our weather recording intervals... More about our weather records

Advertising

Worb weather history for previous 24 hours

 ConditionsComfort  
Time TempWeatherWind HumidityBarometerVisibility
11:20 AM
Dec 27
37 °FLight rain. Broken clouds.7 mph87%29.62 "Hg2 mi
10:50 AM34 °FLight snow. Broken clouds.10 mph93%29.62 "Hg2 mi
10:20 AM34 °FLight snow. Broken clouds.13 mph93%29.62 "Hg2 mi
9:50 AM30 °FLight snow. Broken clouds.7 mph100%29.65 "Hg1 mi
9:20 AM30 °FSnow. More clouds than sun.6 mph100%29.68 "Hg1 mi
8:50 AM30 °FSnow. More clouds than sun.5 mph93%29.68 "Hg1 mi
8:20 AM30 °FSnow. More clouds than sun.1 mph93%29.71 "Hg1 mi
7:50 AM28 °FSnow. Mostly cloudy.2 mph100%29.74 "Hg1 mi
7:20 AM28 °FSnow. Mostly cloudy.2 mph100%29.77 "Hg1 mi
6:50 AM28 °FLight snow. Mostly cloudy.No wind100%29.77 "Hg2 mi
6:20 AM28 °FLight snow. Passing clouds.1 mph100%29.80 "Hg1 mi
5:50 AM28 °FSnow. Passing clouds.2 mph100%29.86 "Hg1 mi
5:20 AM28 °FLight snow. Overcast.2 mph93%29.89 "Hg1 mi
4:20 AM30 °FChilly.2 mph86%29.98 "HgN/A
3:50 AM28 °FChilly.5 mph93%29.98 "HgN/A
3:20 AM28 °FPassing clouds.5 mph93%30.04 "HgN/A
2:50 AM28 °FChilly.2 mph93%30.07 "HgN/A
2:20 AM27 °FClear.1 mph93%30.07 "Hg10 mi
1:50 AM27 °FChilly.No wind93%30.09 "HgN/A
1:20 AM27 °FPassing clouds.1 mph93%30.12 "HgN/A
12:50 AM25 °FClear.1 mph100%30.12 "HgN/A
12:20 AM25 °FClear.2 mph93%30.15 "Hg10 mi
11:50 PM
Dec 26
25 °FClear.1 mph100%30.18 "Hg10 mi
11:20 PM27 °FChilly.1 mph93%30.21 "HgN/A
10:50 PM27 °FChilly.1 mph100%30.21 "HgN/A
10:20 PM27 °FPassing clouds.1 mph93%30.24 "HgN/A
9:50 PM27 °FPassing clouds.3 mph100%30.27 "HgN/A
9:20 PM28 °FPassing clouds.1 mph93%30.27 "HgN/A
8:50 PM28 °FPassing clouds.2 mph93%30.27 "HgN/A
8:20 PM28 °FPassing clouds.2 mph100%30.30 "HgN/A
7:50 PM28 °FPassing clouds.1 mph100%30.30 "HgN/A
7:20 PM28 °FPassing clouds.2 mph100%30.30 "HgN/A
6:50 PM30 °FPassing clouds.2 mph93%30.33 "HgN/A
6:20 PM30 °FPassing clouds.3 mph93%30.33 "HgN/A
5:50 PM32 °FPassing clouds.1 mph87%30.33 "HgN/A
5:20 PM34 °FPassing clouds.1 mph81%30.33 "HgN/A
4:20 PM36 °FScattered clouds.2 mph75%30.33 "HgN/A
3:50 PM39 °FScattered clouds.1 mph56%30.36 "HgN/A
3:20 PM39 °FPartly sunny.5 mph61%30.36 "HgN/A
2:50 PM39 °FPartly sunny.3 mph61%30.36 "HgN/A
2:20 PM41 °FPartly sunny.3 mph57%30.36 "HgN/A
1:50 PM39 °FPartly sunny.1 mph70%30.36 "HgN/A
1:20 PM39 °FPartly sunny.2 mph70%30.36 "HgN/A
12:50 PM37 °FScattered clouds.5 mph93%30.39 "HgN/A
12:20 PM32 °FScattered clouds.1 mph100%30.39 "HgN/A
Weather by CustomWeather, © 2014

See weather overviewHow to use our weather pages